一网星座-0417星 (ONEWEB-0417 )

导读 | 豆包AI

ONEWEB-0417是英国一网公司OneWeb低轨宽带星座的成员卫星,于2021年12月27日发射入轨,该星座计划打造覆盖全球的低轨互联网通信网络,为偏远及基础设施薄弱地区提供低价接入服务。卫星运行于1200公里近地轨道,依托全球关口站实现联网,可提供高速宽带服务,助力完善全球网络覆盖,是一网一期组网过程中部署的卫星之一。

Basic Information
目录编号:
50492
目录名称:
ONEWEB-0417
国际标识:
2021-132Z
轨道中心:
EARTH
卫星名称:
一网星座-0417星
卫星全名:
一网星座-0417星 (ONEWEB-0417 )
卫星状态:
在轨 (已飞行1538 天)
发射日期:
2021-12-27 UTC
国别 :
英国 (GB)
星等 :
--
Orbit Information
数据来源 国际轨道数据 AOE轨道数据
星历时间 2026-03-13T14:29:55+0800
1天前
查看轨道信息
2026-03-10T13:00:00+0800
4天前
查看轨道信息
半长轴 7567.886km 7567.878km
偏心率 0.0001769 0.0001764
轨道倾角 87.924° 87.926°
近地点辐角 72.268° 99.773°
升交点赤经 354.515° 355.121°
平近点角 287.864° 130.495°
近地点 1188.41km 1188.406km
远地点 1191.088km 1191.076km
周期 109.200分钟 109.200分钟
每日圈数 13.186847 13.186868
Detailed Information
平衡模式:
三轴稳定
覆盖范围:
全球
运营商:
一网卫星公司
运营商所在国:
英国
制造商(研发单位):
一网卫星公司
制造商所在国:
英国
使用方式:
暂无
Satellite Introduction
OneWeb卫星网络由648颗重约125公斤的微型卫星组成,运行在1200公里的轨道上。 每颗卫星都能够提供至少每秒8千兆位的吞吐量,以使用其高吞吐量的Ku频段有效载荷为家庭和移动平台提供互联网接入。该卫星仍在工作。
2D Orbit Map
3D Orbit Map
Orbit Altitude Analysis Chart
Orbit Inclination Analysis Chart
Orbit Comprehensive Analysis Chart
View Comprehensive Chart